SL-14 DEB, 44575

Orbit data source: Space-Track

SL-14 DEB, 44575 is space debris in LEO originally from a launch on Thu, 24 Jun 1993 UTC launched from the Plesetsk Missile And Space Complex (PKMTR). Debris objects in space refer to the collection of defunct objects orbiting the Earth. Examples of debris include non-operational satellites, rocket bodies, and fragments generated from explosions, collisions, or faulty payload assembly.

Loading next visibility...
Identifier
44575, 1993-038H
Orbit
LEO
Last TLE update
19 hours ago
Origin
Manufacturer
Unknown
Mission
Spacecraft
Bus & Motor
Unknown
Mass
Unknown
Launch date (UTC)
1993-06-24 (32 years ago)
Launch vehicle
Unknown
Launch site
Plesetsk Missile And Space Complex (PKMTR)
Object type
Payload
Rocket body
Debris
Shape & HBR
Unknown
Radar Cross Section
Small (<0.1 m²)

Expand to show TLE details & history

TLE from 19 hours ago
0 SL-14 DEB
1 44575U 93038H   25183.76776277  .00000024  00000-0  81056-4 0  9996
2 44575  82.5837 209.2404 0046235  25.9589 334.3802 12.54891816391752
Epoch: 2025-07-02T18:25Z
TLE epoch observation values (Epoch: 2025-07-02T18:25:34.703Z)
Latitude
-0.00009°
Longitude
11.80166°
Altitude
1,414.235 km
Speed
7.168 km/s
True Right ascension
13h 56m 57s
True Declination
0° 00' 00"
Sunlit
Object was in daylight at epoch
Visualization orbit readout
Latitude
-11.43298°
Longitude
9.80096°
Altitude
1,419.531 km
Speed
7.164 km/s
Apparent Right ascension
13h 36m 25s
Apparent Declination
-24° 08' 28"
Sunlit
Object is in daylight
Visualization observer readout
Local Sidereal Time
01:16:51
Azimuth
343.907° N
Elevation
-73.696°
Doppler factor
1
Orbital elements
Apogee altitude
1,477.585 km
Perigee altitude
1,405.277 km
Semi-major axis
7,819.568 km
Eccentricity
0.00462
Inclination
82.5837°
RAAN
209.2404°
Arg. of periapsis
25.9589°
True anomaly
Unknown
Mean anomaly
334.3802°
Eccentric anomaly
Unknown
Mean motion
3.13884 °/min
Orbital period
114.69 mins
BSTAR
0.000081056
Loading maneuver chart data...
Loading SW <> Apogee altitude chart data...
Loading historical data...
Loading historical data...
Loading historical data...
Loading historical data...
Loading historical data...
Loading historical data...
Loading historical data...

SL-14 DEB Visibility forecast

Observer location: undefined°, undefined°

Span
Click to sort rows by Start time (UTC) header in descending order
Start Az.
Max El. time (UTC)
Max El. Az.
Max El.
End time (UTC)
End Az.
16 mins2025-07-03 14:10:01.347Z343.976° N2025-07-03 14:18:01.347Z270.614° WNW39.982°2025-07-03 14:26:01.347Z194.723° SSW
12 mins2025-07-04 01:10:01.347Z133.414° SE2025-07-04 01:15:01.347Z86.268° E27.42°2025-07-04 01:22:01.347Z27.247° NE
14 mins2025-07-04 03:04:01.347Z212.199° SW2025-07-04 03:10:01.347Z273.542° WNW38.155°2025-07-04 03:18:01.347Z357.431° N
5 mins2025-07-04 11:16:01.347Z44.102° NE2025-07-04 11:18:01.347Z58.71° ENE12.453°2025-07-04 11:21:01.347Z80.169° E
16 mins2025-07-04 13:08:01.347Z358.34° N2025-07-04 13:15:01.347Z61.911° ENE42.857°2025-07-04 13:24:01.347Z163.491° S
|